EZY5335 EDDB-EHAM

Flight info

Callsign EZY5335
Flight time N/A
Altitude 36000
Route SUKIP4N SUKIP Y206 BUREL P203 HLZ L980 ROBEG DCT NORKU
Aircraft A320/M-SDE3FGHIRWY/LB1

Departure

Time 2026-05-01 14:45
Airport Berlin Brandenburg Airport (EDDB)

Arrival

Time N/A
Airport Amsterdam Airport Schiphol (EHAM)
Time Latitude Longitude Altitude Speed Heading
2026-05-01 14:22 52.36094 13.50794 159 ft 0 kts 63°
2026-05-01 14:37 52.36092 13.50786 184 ft 4 kts 63°
2026-05-01 14:37 52.36079 13.50746 186 ft 4 kts 63°
2026-05-01 14:37 52.36068 13.50707 158 ft 4 kts 73°
2026-05-01 14:37 52.36065 13.50665 158 ft 4 kts 104°
2026-05-01 14:38 52.36075 13.50638 158 ft 1 kts 159°
2026-05-01 14:38 52.36076 13.50638 158 ft 0 kts 159°
2026-05-01 14:40 52.36007 13.50679 158 ft 20 kts 160°
2026-05-01 14:41 52.35877 13.50759 158 ft 21 kts 158°
2026-05-01 14:41 52.35801 13.50839 158 ft 9 kts 173°
2026-05-01 14:41 52.35747 13.50895 158 ft 12 kts 90°
2026-05-01 14:41 52.35790 13.51099 158 ft 27 kts 71°
2026-05-01 14:42 52.35857 13.51392 158 ft 26 kts 67°
2026-05-01 14:42 52.35918 13.51634 159 ft 22 kts 68°
2026-05-01 14:42 52.35970 13.51857 159 ft 20 kts 69°
2026-05-01 14:42 52.36010 13.52020 159 ft 11 kts 69°
2026-05-01 14:43 52.36026 13.52135 159 ft 10 kts 96°
2026-05-01 14:43 52.35984 13.52198 159 ft 8 kts 160°
2026-05-01 14:43 52.35925 13.52233 159 ft 14 kts 160°
2026-05-01 14:43 52.35818 13.52205 158 ft 16 kts 237°
2026-05-01 14:44 52.35762 13.51970 160 ft 44 kts 248°
2026-05-01 14:44 52.35216 13.49668 169 ft 161 kts 246°
2026-05-01 14:44 52.34783 13.47827 463 ft 183 kts 249°
2026-05-01 14:45 52.34268 13.45749 534 ft 222 kts 244°
2026-05-01 14:45 52.32102 13.40874 978 ft 294 kts 228°
2026-05-01 14:45 52.30757 13.38522 2512 ft 273 kts 227°
2026-05-01 14:46 52.29495 13.36359 4080 ft 252 kts 226°
2026-05-01 14:46 52.27181 13.32293 6280 ft 245 kts 226°
2026-05-01 14:46 52.26027 13.30206 7092 ft 250 kts 226°
2026-05-01 14:47 52.24865 13.28065 7894 ft 254 kts 230°
2026-05-01 14:47 52.23937 13.25551 8537 ft 269 kts 246°
2026-05-01 14:47 52.23186 13.22621 8988 ft 290 kts 247°
2026-05-01 14:48 52.21627 13.16364 10542 ft 303 kts 247°
2026-05-01 14:48 52.20828 13.13154 11311 ft 308 kts 247°
2026-05-01 14:48 52.19185 13.06602 12847 ft 317 kts 247°
2026-05-01 14:49 52.17474 12.99867 14336 ft 326 kts 247°
2026-05-01 14:49 52.15979 12.92778 15440 ft 344 kts 257°
2026-05-01 14:50 52.15047 12.86144 15932 ft 371 kts 257°
2026-05-01 14:50 52.13730 12.76507 17450 ft 379 kts 262°
2026-05-01 14:51 52.13611 12.72217 18101 ft 381 kts 275°
2026-05-01 14:51 52.15196 12.64029 19307 ft 382 kts 303°
2026-05-01 14:52 52.18781 12.57671 20421 ft 384 kts 320°
2026-05-01 14:52 52.20772 12.54754 20974 ft 387 kts 320°
2026-05-01 14:52 52.24569 12.48442 22047 ft 396 kts 307°
2026-05-01 14:53 52.25953 12.44523 22568 ft 402 kts 296°
2026-05-01 14:53 52.26868 12.40202 23074 ft 406 kts 284°
2026-05-01 14:53 52.27501 12.35685 23599 ft 409 kts 283°
2026-05-01 14:53 52.28134 12.31148 24080 ft 412 kts 283°
2026-05-01 14:54 52.28776 12.26569 24504 ft 415 kts 284°
2026-05-01 14:54 52.29421 12.21972 24929 ft 417 kts 284°
2026-05-01 14:54 52.30060 12.17399 25352 ft 419 kts 284°
2026-05-01 14:54 52.30705 12.12750 25780 ft 421 kts 284°
2026-05-01 14:55 52.31353 12.08078 26199 ft 423 kts 284°
2026-05-01 14:55 52.32002 12.03375 26612 ft 425 kts 284°
2026-05-01 14:55 52.32654 11.98644 27016 ft 427 kts 284°
2026-05-01 14:55 52.33306 11.93894 27412 ft 429 kts 283°
2026-05-01 14:56 52.33957 11.89130 27840 ft 430 kts 283°
2026-05-01 14:56 52.34461 11.84288 28233 ft 433 kts 275°
2026-05-01 14:56 52.34592 11.79355 28618 ft 435 kts 272°
2026-05-01 14:56 52.34697 11.74402 29000 ft 438 kts 272°
2026-05-01 14:57 52.34807 11.69415 29373 ft 440 kts 273°
2026-05-01 14:57 52.35019 11.59367 30100 ft 444 kts 272°
2026-05-01 14:57 52.35116 11.54301 30442 ft 446 kts 272°
2026-05-01 14:58 52.35209 11.49220 30738 ft 448 kts 272°
2026-05-01 14:58 52.35301 11.44111 31025 ft 450 kts 272°
2026-05-01 14:58 52.35396 11.38980 31299 ft 452 kts 272°
2026-05-01 14:58 52.35490 11.33892 31576 ft 454 kts 272°
2026-05-01 14:59 52.35583 11.28729 31869 ft 455 kts 272°
2026-05-01 14:59 52.35677 11.23564 32252 ft 454 kts 272°
2026-05-01 14:59 52.35760 11.18391 32637 ft 453 kts 271°
2026-05-01 14:59 52.35766 11.13248 33019 ft 452 kts 269°
2026-05-01 15:00 52.35577 11.02977 33811 ft 450 kts 268°
2026-05-01 15:00 52.35443 10.97879 34184 ft 449 kts 268°
2026-05-01 15:00 52.35317 10.92772 34533 ft 448 kts 268°
2026-05-01 15:01 52.35204 10.87770 34976 ft 444 kts 268°
2026-05-01 15:01 52.35105 10.82742 35358 ft 441 kts 268°
2026-05-01 15:01 52.35012 10.77730 35679 ft 440 kts 268°
2026-05-01 15:01 52.34921 10.72736 35974 ft 439 kts 268°
2026-05-01 15:02 52.34828 10.67744 36252 ft 438 kts 268°
2026-05-01 15:02 52.34629 10.57834 36356 ft 433 kts 268°
2026-05-01 15:03 52.34419 10.48028 36355 ft 431 kts 268°
2026-05-01 15:03 52.34203 10.38248 36354 ft 429 kts 268°
2026-05-01 15:04 52.33977 10.28509 36341 ft 428 kts 268°
2026-05-01 15:04 52.33746 10.18770 36344 ft 428 kts 268°
2026-05-01 15:05 52.33511 10.09035 36344 ft 428 kts 268°
2026-05-01 15:05 52.33260 9.99310 36329 ft 428 kts 268°
2026-05-01 15:06 52.32999 9.89644 36327 ft 428 kts 268°
2026-05-01 15:06 52.32738 9.79927 36331 ft 427 kts 268°
2026-05-01 15:07 52.32472 9.70225 36333 ft 427 kts 268°
2026-05-01 15:07 52.32190 9.60524 36334 ft 427 kts 268°
2026-05-01 15:08 52.31900 9.50906 36331 ft 427 kts 268°
2026-05-01 15:08 52.31607 9.41157 36331 ft 426 kts 268°
2026-05-01 15:09 52.31305 9.31543 36327 ft 427 kts 267°
2026-05-01 15:09 52.30993 9.21854 36328 ft 426 kts 267°
2026-05-01 15:10 52.30673 9.12171 36324 ft 426 kts 267°
2026-05-01 15:10 52.30176 8.97653 36327 ft 426 kts 267°
2026-05-01 15:11 52.29673 8.83158 36332 ft 425 kts 268°
2026-05-01 15:12 52.29325 8.73516 36331 ft 425 kts 267°
2026-05-01 15:12 52.28779 8.59121 36331 ft 425 kts 267°
2026-05-01 15:14 52.27846 8.35032 36326 ft 424 kts 267°
2026-05-01 15:14 52.27261 8.20659 36322 ft 424 kts 267°
2026-05-01 15:15 52.26455 8.01458 36169 ft 424 kts 267°
2026-05-01 15:16 52.26046 7.91879 35650 ft 422 kts 266°
2026-05-01 15:16 52.25624 7.82378 35144 ft 415 kts 267°
2026-05-01 15:17 52.25206 7.73023 34653 ft 412 kts 267°
2026-05-01 15:18 52.24575 7.59127 33883 ft 405 kts 267°
2026-05-01 15:18 52.24361 7.54544 33610 ft 405 kts 267°
2026-05-01 15:19 52.23707 7.40838 32630 ft 399 kts 267°
2026-05-01 15:19 52.23279 7.31947 31697 ft 393 kts 266°
2026-05-01 15:19 52.23061 7.27518 31216 ft 390 kts 266°
2026-05-01 15:20 52.22626 7.18758 30312 ft 385 kts 266°
2026-05-01 15:20 52.22408 7.14421 29839 ft 381 kts 266°
2026-05-01 15:20 52.22190 7.10136 29409 ft 377 kts 266°
2026-05-01 15:21 52.21974 7.05899 28991 ft 372 kts 266°
2026-05-01 15:21 52.22009 7.01714 28585 ft 367 kts 278°
2026-05-01 15:21 52.22564 6.97686 28190 ft 362 kts 290°
2026-05-01 15:21 52.23607 6.93920 27692 ft 371 kts 301°
2026-05-01 15:22 52.26795 6.87207 26701 ft 375 kts 310°
2026-05-01 15:22 52.28456 6.83908 26202 ft 375 kts 309°
2026-05-01 15:22 52.30102 6.80616 25707 ft 374 kts 309°
2026-05-01 15:23 52.31739 6.77324 25218 ft 373 kts 309°
2026-05-01 15:23 52.33372 6.74033 24751 ft 372 kts 309°
2026-05-01 15:23 52.34998 6.70751 24271 ft 371 kts 309°
2026-05-01 15:23 52.36621 6.67475 23810 ft 370 kts 309°
2026-05-01 15:24 52.38236 6.64209 23248 ft 369 kts 309°
2026-05-01 15:24 52.39310 6.62041 22901 ft 369 kts 309°
2026-05-01 15:24 52.40926 6.58775 22368 ft 369 kts 308°
2026-05-01 15:24 52.42540 6.55509 21841 ft 369 kts 308°
2026-05-01 15:25 52.44154 6.52237 21320 ft 369 kts 308°
2026-05-01 15:25 52.46051 6.47641 20655 ft 367 kts 293°
2026-05-01 15:25 52.46888 6.43723 20236 ft 362 kts 280°
2026-05-01 15:25 52.47149 6.40993 19990 ft 357 kts 272°
2026-05-01 15:26 52.47357 6.36942 19528 ft 356 kts 272°
2026-05-01 15:26 52.47561 6.32895 19065 ft 356 kts 272°
2026-05-01 15:26 52.47764 6.28847 18600 ft 356 kts 272°
2026-05-01 15:26 52.47965 6.24800 18090 ft 356 kts 272°
2026-05-01 15:27 52.48165 6.20764 17624 ft 354 kts 272°
2026-05-01 15:27 52.48360 6.16796 17149 ft 353 kts 272°
2026-05-01 15:27 52.48554 6.12790 16700 ft 351 kts 271°
2026-05-01 15:28 52.48927 6.04835 15812 ft 349 kts 271°
2026-05-01 15:28 52.49111 6.00890 15451 ft 343 kts 271°
2026-05-01 15:28 52.49293 5.97032 14895 ft 335 kts 271°
2026-05-01 15:29 52.49649 5.89623 14030 ft 318 kts 271°
2026-05-01 15:29 52.49817 5.86027 13586 ft 314 kts 271°
2026-05-01 15:29 52.50143 5.78966 12775 ft 310 kts 271°
2026-05-01 15:30 52.50460 5.71981 11966 ft 304 kts 271°
2026-05-01 15:31 52.51059 5.58340 10419 ft 294 kts 270°
2026-05-01 15:31 52.50839 5.51757 9620 ft 286 kts 261°
2026-05-01 15:32 52.50485 5.45277 8895 ft 283 kts 261°
2026-05-01 15:32 52.50136 5.38877 8175 ft 279 kts 261°
2026-05-01 15:33 52.49624 5.29496 7128 ft 273 kts 261°
2026-05-01 15:34 52.49121 5.20584 6107 ft 268 kts 261°